Regional Weather Roundup
Issued by NWS

Home | Current Version | Previous Version | Graphics & Text | Print | Product List | Glossary On
Versions: 1 2 3 4 5 6 7 8 9 10 11 12 13 14 15 16 17 18 19 20 21 22 23 24 25 26 27 28 29 30 31 32 33 34 35 36 37 38 39 40 41 42 43 44 45 46 47 48 49 50
000
ASUS43 KBIS 180202
RWRND

NORTH DAKOTA REGIONAL WEATHER ROUNDUP
NATIONAL WEATHER SERVICE BISMARCK ND
800 PM CST TUE JAN 17 2017

NOTE: "FAIR" INDICATES FEW OR NO CLOUDS BELOW 12,000 FEET WITH NO
SIGNIFICANT WEATHER AND/OR OBSTRUCTIONS TO VISIBILITY.


NDZ001>003-009>011-017-180300-
NORTHWEST NORTH DAKOTA

CITY           SKY/WX    TMP DP  RH WIND       PRES   REMARKS
WILLISTON      FAIR      27  20  75 SE6       29.72R
MINOT          FAIR      36  24  62 SW16      29.64R
$$

NDZ018>021-031>035-040>046-180300-
SOUTHWEST NORTH DAKOTA

CITY           SKY/WX    TMP DP  RH WIND       PRES   REMARKS
BISMARCK       FAIR      31  18  58 SW9       29.76F
DICKINSON      FAIR      29  20  69 SW14      29.75R WCI  18
GARRISON         N/A     28  21  75 W13       29.69S WCI  17
HETTINGER ARPT CLOUDY    28  18  66 NW10      29.82S WCI  19
$$

NDZ004>008-012>016-024-026-027-054-180300-
NORTHEAST NORTH DAKOTA

CITY           SKY/WX    TMP DP  RH WIND       PRES   REMARKS
GRAND FORKS    CLOUDY    23  17  78 S20       29.72R WCI   8
GRND FRKS AFB  CLOUDY    26  18  71 SW10      29.71R WCI  16
DEVILS LAKE    FAIR      26  20  77 SW14      29.66F WCI  14
$$

NDZ022-023-025-028>030-036>039-047>053-180300-
SOUTHEAST NORTH DAKOTA

CITY           SKY/WX    TMP DP  RH WIND       PRES   REMARKS
FARGO          CLOUDY    21  17  84 S16       29.81F WCI   7
JAMESTOWN      FAIR      28  18  66 SW13      29.72F WCI  17
$$





USA.gov is the U.S. government's official web portal to all federal, state and local government web resources and services.